OCI10 KLAX-YBBN

Flight info

Callsign OCI10
Flight time N/A
Altitude 32000
Route SUMMR2 DINTY DCT 3342N12808W 3319N13237W 3122N13811W/N0478F340 2938N14129W 2846N14311W 2633N14731W 2415N15138W 2324N15258W 2124N15600W 1919N15830W 1754N15954W/N0483F360 1546N16158W 1304N16425W 0951N16708W 0906N16747W 0523N17117W 0401N17243W 0203N17441W/N0478F380 0023S17709W 0242S17938W 0301S18000W 0516S17729E 0848S17325E 1108S17047E 1404S16732E 1807S16431E/N0472F400 2006S16300E 2238S16100E 2446S15830E 2545S15700E DCT MEPEM Q144 ATROP H224 TEBOT
Aircraft A339/H-SADE1E2E3GHIJ3J5M1P2RWXY/LB2D1

Departure

Time 2026-04-25 11:22
Airport Los Angeles International Airport (KLAX)

Arrival

Time N/A
Airport Brisbane International Airport (YBBN)
Time Latitude Longitude Altitude Speed Heading
2026-04-25 11:11 33.94089 -118.40936 128 ft 0 kts 264°
2026-04-25 11:16 33.94089 -118.40935 128 ft 1 kts 264°
2026-04-25 11:16 33.94091 -118.40907 131 ft 4 kts 264°
2026-04-25 11:17 33.94094 -118.40876 131 ft 4 kts 246°
2026-04-25 11:17 33.94105 -118.40851 128 ft 4 kts 213°
2026-04-25 11:17 33.94123 -118.40838 130 ft 3 kts 174°
2026-04-25 11:17 33.94127 -118.40838 131 ft 0 kts 172°
2026-04-25 11:19 33.94109 -118.40836 131 ft 8 kts 172°
2026-04-25 11:19 33.94043 -118.40825 129 ft 10 kts 172°
2026-04-25 11:19 33.93977 -118.40815 129 ft 9 kts 173°
2026-04-25 11:20 33.93909 -118.40806 130 ft 11 kts 174°
2026-04-25 11:20 33.93892 -118.40796 126 ft 5 kts 147°
2026-04-25 11:20 33.93846 -118.40750 128 ft 16 kts 144°
2026-04-25 11:20 33.93773 -118.40757 131 ft 8 kts 196°
2026-04-25 11:21 33.93743 -118.40766 128 ft 8 kts 195°
2026-04-25 11:21 33.93684 -118.40953 131 ft 54 kts 263°
2026-04-25 11:21 33.93608 -118.41672 123 ft 117 kts 263°
2026-04-25 11:21 33.93488 -118.42864 144 ft 167 kts 263°
2026-04-25 11:22 33.93380 -118.44310 455 ft 181 kts 272°
2026-04-25 11:22 33.93422 -118.44815 605 ft 184 kts 279°
2026-04-25 11:22 33.93513 -118.45324 804 ft 184 kts 285°
2026-04-25 11:22 33.94011 -118.46775 1271 ft 196 kts 290°
2026-04-25 11:23 33.94247 -118.48456 1578 ft 211 kts 271°
2026-04-25 11:23 33.94265 -118.50263 2076 ft 218 kts 268°
2026-04-25 11:23 33.94167 -118.52117 2482 ft 228 kts 263°
2026-04-25 11:23 33.93991 -118.54111 2534 ft 253 kts 262°
2026-04-25 11:24 33.93796 -118.56258 2803 ft 263 kts 263°
2026-04-25 11:24 33.93614 -118.58462 3277 ft 265 kts 263°
2026-04-25 11:24 33.93439 -118.60675 3814 ft 264 kts 264°
2026-04-25 11:24 33.93269 -118.62862 4408 ft 262 kts 264°
2026-04-25 11:25 33.93099 -118.65043 4941 ft 262 kts 264°
2026-04-25 11:25 33.92930 -118.67234 5445 ft 263 kts 265°
2026-04-25 11:25 33.92761 -118.69430 5969 ft 263 kts 265°
2026-04-25 11:25 33.92592 -118.71627 6490 ft 263 kts 265°
2026-04-25 11:26 33.92423 -118.73821 6991 ft 264 kts 265°
2026-04-25 11:26 33.92255 -118.76000 7461 ft 264 kts 265°
2026-04-25 11:26 33.92085 -118.78211 7969 ft 265 kts 264°
2026-04-25 11:26 33.91911 -118.80458 8480 ft 266 kts 264°
2026-04-25 11:27 33.91740 -118.82650 8972 ft 267 kts 264°
2026-04-25 11:27 33.91712 -118.84891 9473 ft 269 kts 271°
2026-04-25 11:27 33.91802 -118.87143 9951 ft 270 kts 271°
2026-04-25 11:27 33.91857 -118.88657 10172 ft 275 kts 271°
2026-04-25 11:28 33.91960 -118.91867 10335 ft 295 kts 270°
2026-04-25 11:28 33.92033 -118.94392 10462 ft 309 kts 270°
2026-04-25 11:28 33.92108 -118.96988 10691 ft 317 kts 270°
2026-04-25 11:28 33.92232 -118.99655 11141 ft 319 kts 276°
2026-04-25 11:29 33.92760 -119.02269 11620 ft 323 kts 287°
2026-04-25 11:29 33.93757 -119.04717 12064 ft 329 kts 298°
2026-04-25 11:29 33.94992 -119.07012 12502 ft 331 kts 298°
2026-04-25 11:29 33.96232 -119.09357 12963 ft 332 kts 298°
2026-04-25 11:30 33.97465 -119.11729 13411 ft 334 kts 297°
2026-04-25 11:30 33.98695 -119.14111 13846 ft 336 kts 297°
2026-04-25 11:30 33.99950 -119.16494 14221 ft 339 kts 300°
2026-04-25 11:30 34.01464 -119.18704 14605 ft 346 kts 309°
2026-04-25 11:31 34.03294 -119.20646 14979 ft 353 kts 318°
2026-04-25 11:31 34.05320 -119.22349 15352 ft 356 kts 320°
2026-04-25 11:31 34.07360 -119.24073 15721 ft 358 kts 319°
2026-04-25 11:31 34.09372 -119.25793 16098 ft 360 kts 319°
2026-04-25 11:32 34.11421 -119.27556 16468 ft 362 kts 319°
2026-04-25 11:32 34.13477 -119.29328 16831 ft 364 kts 319°
2026-04-25 11:32 34.15552 -119.31117 17194 ft 367 kts 319°
2026-04-25 11:32 34.17638 -119.32916 17565 ft 369 kts 319°
2026-04-25 11:33 34.19731 -119.34723 17933 ft 371 kts 319°
2026-04-25 11:33 34.21814 -119.36521 18283 ft 373 kts 319°
2026-04-25 11:33 34.23938 -119.38356 18608 ft 375 kts 319°
2026-04-25 11:33 34.26065 -119.40195 18939 ft 377 kts 319°
2026-04-25 11:34 34.28206 -119.42047 19269 ft 379 kts 319°
2026-04-25 11:34 34.30353 -119.43905 19584 ft 381 kts 319°
2026-04-25 11:34 34.32511 -119.45773 19917 ft 383 kts 319°
2026-04-25 11:34 34.34662 -119.47638 20243 ft 385 kts 319°
2026-04-25 11:35 34.36845 -119.49535 20573 ft 386 kts 319°
2026-04-25 11:35 34.38769 -119.51756 20851 ft 380 kts 303°
2026-04-25 11:35 34.40077 -119.54498 21181 ft 374 kts 287°
2026-04-25 11:35 34.40700 -119.57526 21491 ft 370 kts 273°
2026-04-25 11:36 34.40652 -119.60638 21819 ft 369 kts 262°
2026-04-25 11:36 34.40392 -119.63740 22126 ft 372 kts 263°
2026-04-25 11:36 34.40155 -119.66871 22462 ft 374 kts 263°
2026-04-25 11:36 34.39933 -119.69978 22798 ft 376 kts 263°
2026-04-25 11:37 34.39712 -119.73147 23139 ft 378 kts 263°
2026-04-25 11:37 34.39490 -119.76326 23471 ft 380 kts 263°
2026-04-25 11:37 34.39265 -119.79533 23769 ft 382 kts 263°
2026-04-25 11:37 34.39038 -119.82737 24083 ft 383 kts 263°
2026-04-25 11:38 34.38809 -119.85962 24387 ft 384 kts 263°
2026-04-25 11:38 34.38579 -119.89187 24686 ft 385 kts 263°
2026-04-25 11:38 34.38350 -119.92383 24975 ft 387 kts 263°
2026-04-25 11:38 34.38116 -119.95640 25270 ft 388 kts 263°
2026-04-25 11:39 34.37881 -119.98902 25561 ft 390 kts 263°
2026-04-25 11:39 34.37644 -120.02184 25849 ft 391 kts 263°
2026-04-25 11:39 34.37405 -120.05474 26141 ft 392 kts 263°
2026-04-25 11:39 34.37164 -120.08772 26424 ft 394 kts 263°
2026-04-25 11:40 34.36922 -120.12082 26717 ft 395 kts 263°
2026-04-25 11:40 34.36678 -120.15401 27005 ft 397 kts 263°
2026-04-25 11:40 34.36435 -120.18691 27278 ft 398 kts 263°
2026-04-25 11:40 34.36186 -120.22043 27558 ft 399 kts 263°
2026-04-25 11:41 34.35936 -120.25403 27830 ft 401 kts 263°
2026-04-25 11:41 34.35684 -120.28784 28087 ft 402 kts 263°
2026-04-25 11:41 34.35430 -120.32166 28347 ft 404 kts 263°
2026-04-25 11:41 34.35179 -120.35514 28614 ft 405 kts 263°
2026-04-25 11:42 34.34922 -120.38920 28862 ft 406 kts 263°
2026-04-25 11:42 34.34644 -120.42330 29104 ft 407 kts 261°
2026-04-25 11:42 34.34118 -120.45710 29354 ft 408 kts 255°
2026-04-25 11:42 34.33291 -120.48995 29615 ft 408 kts 250°
2026-04-25 11:43 34.32180 -120.52163 29852 ft 410 kts 244°
2026-04-25 11:43 34.31344 -120.54221 29993 ft 411 kts 244°
2026-04-25 11:43 34.29676 -120.58399 30339 ft 412 kts 245°
2026-04-25 11:43 34.28456 -120.61490 30614 ft 411 kts 245°
2026-04-25 11:44 34.27227 -120.64604 30880 ft 411 kts 245°
2026-04-25 11:44 34.26395 -120.66711 31059 ft 411 kts 245°
2026-04-25 11:44 34.25171 -120.69804 31294 ft 412 kts 244°
2026-04-25 11:44 34.23928 -120.72940 31537 ft 413 kts 244°
2026-04-25 11:45 34.22683 -120.76078 31785 ft 413 kts 244°
2026-04-25 11:45 34.21029 -120.80239 31960 ft 417 kts 244°
2026-04-25 11:45 34.18917 -120.85544 31965 ft 424 kts 244°
2026-04-25 11:46 34.16344 -120.91998 31977 ft 427 kts 244°
2026-04-25 11:46 34.13765 -120.98456 31973 ft 426 kts 244°
2026-04-25 11:47 34.11182 -121.04912 31969 ft 426 kts 244°
2026-04-25 11:47 34.08596 -121.11363 31968 ft 426 kts 244°
2026-04-25 11:48 34.06011 -121.17798 31975 ft 426 kts 244°
2026-04-25 11:48 34.03435 -121.24198 31979 ft 426 kts 244°
2026-04-25 11:49 34.00838 -121.30639 31976 ft 426 kts 244°
2026-04-25 11:49 33.98258 -121.37025 31980 ft 426 kts 244°
2026-04-25 11:50 33.95660 -121.43443 31978 ft 426 kts 244°
2026-04-25 11:50 33.93053 -121.49871 31982 ft 426 kts 244°
2026-04-25 11:51 33.90449 -121.56280 31983 ft 426 kts 244°
2026-04-25 11:51 33.87840 -121.62690 31985 ft 426 kts 244°
2026-04-25 11:52 33.85244 -121.69054 31981 ft 426 kts 244°
2026-04-25 11:52 33.82627 -121.75458 31982 ft 426 kts 244°
2026-04-25 11:53 33.80003 -121.81867 31984 ft 427 kts 243°
2026-04-25 11:53 33.77375 -121.88273 31981 ft 427 kts 243°
2026-04-25 11:54 33.74746 -121.94673 31982 ft 427 kts 243°